Regional Weather Roundup
Issued by NWS Albany, NY

Home | Current Version | Previous Version | Graphics & Text | Print | Product List | Glossary On
Versions: 1 2 3 4 5 6 7 8 9 10 11 12 13 14 15 16 17 18 19 20 21 22 23 24 25 26 27 28 29 30 31 32 33 34 35 36 37 38 39 40 41 42 43 44 45 46 47 48 49 50
000
ASUS41 KALY 051010
RWRALY

NEW YORK STATE HOURLY WEATHER ROUNDUP
NATIONAL WEATHER SERVICE ALBANY NY
600 AM EDT THU MAY 05 2016

NOTE: "FAIR" INDICATES FEW OR NO CLOUDS BELOW 12,000 FEET WITH NO
SIGNIFICANT WEATHER AND/OR NO OBSTRUCTIONS TO VISIBILITY.

NYZ032-033-038>043-046>054-057>066-NYZ062>081-082-084-051100-
EAST


CITY           SKY/WX    TMP DP  RH WIND       PRES   REMARKS
ALBANY         CLOUDY    47  44  90 N3        29.76S
GLENS FALLS    CLOUDY    48  42  80 N7        29.78R
POUGHKEEPSIE   CLOUDY    48  42  80 N3        29.71F
MONTGOMERY     CLOUDY    47  43  86 NE6       29.71F
WHITE PLAINS   CLOUDY    45  41  86 N5        29.69F
ISLIP          CLOUDY    45  41  86 N15G23    29.67F
NEW YORK CITY  CLOUDY    48  45  89 N12G17    29.70S
CENTRAL PARK   CLOUDY    47  41  80 NE8       29.72F
$$

NYZ005>009-017-018-044>046-055-056-051100-
CENTRAL


CITY           SKY/WX    TMP DP  RH WIND       PRES   REMARKS
FULTON         MOCLDY    50  42  74 E3        29.78R
SYRACUSE       MOCLDY    46  42  86 E7        29.76S
ROME           CLOUDY    45  44  97 CALM      29.79R
ELMIRA         CLOUDY    49  44  83 CALM      29.73R
BINGHAMTON     CLOUDY    42  40  92 E6        29.72S
MONTICELLO     CLOUDY    43  41  93 CALM      29.73S
$$

NYZ026>034-041>043-087-051100-
NORTH


CITY           SKY/WX    TMP DP  RH WIND       PRES   REMARKS
WATERTOWN      CLOUDY    45  43  93 NE6       29.79R
FORT DRUM      NOT AVBL
MASSENA        CLOUDY    46  42  86 NE9       29.83R
SARANAC LAKE   FOG       39  37  92 NE3       29.78R VSB 1
PLATTSBURGH    CLOUDY    45  43  93 NW5       29.81S
$$

NYZ001>004-010>016-019>021-085-051100-
WEST


CITY           SKY/WX    TMP DP  RH WIND       PRES   REMARKS
NIAGARA FALLS  CLOUDY    47  43  86 NE9       29.74S
BUFFALO        FOG       46  45  96 NE7       29.74R VSB 1/4
DUNKIRK        CLOUDY    48  45  89 N6        29.72R
JAMESTOWN      PTCLDY    46  41  81 NE6       29.70R
WELLSVILLE     CLOUDY    47  45  93 E5        29.72R FOG
ROCHESTER      CLOUDY    51  46  83 E13       29.76R
PENN YAN       CLOUDY    49  45  86 CALM      29.75R
$$

             KEY
       WCI = WIND CHILL INDEX
       VSB = VISIBILITY
       HX  = HEAT INDEX
$$



USA.gov is the U.S. government's official web portal to all federal, state and local government web resources and services.